Powrót do katalogu

SL-8 R/B

AktywnyLEO
NORAD 13769·ROCKET BODY·🇷🇺 Russia

Wystrzelony Jan 19, 1983 z Plesetsk Cosmodrome

Loading…

Następne Przeloty (najbliższe 24 godziny)

TLE

ŚwieżeSource: Space-Track

Epoka: Sep 14, 2026, 08:20 UTC

1 13769U 83002J   26257.34756803  .00000032  00000-0  43725-3 0  9996
2 13769  74.0056 215.0649 0136734 291.4342 224.2031 12.21374143946625

Śledź SL-8 R/B w czasie rzeczywistym z AllMySat

Download on the App Store